Starlink 5454

operational
NORAD ID: 54774 Int'l Des: 2022-175 Owner: SPXS Country: US Constellation: starlink
LEOCIRCULAR

Über Starlink 5454

Beschreibung wird geladen...

Live-Position

3D-Globus wird geladen...

Nächste Überflüge

Höhenverlauf

Altitude vs Time

uPlot chart will show altitude changes over time

Zweizeiliger Elementsatz

1 54774U 22175S 26034.37377287 .00000663 00000-0 59758-4 0 9996
2 54774 53.2168 182.8523 0001919 82.9109 277.2102 15.08837478174950
Epoch: 3. Feb. 2026 • Age: 39 hours

Aktueller Status

Höhe 541.6 km
Geschwindigkeit 7.60 km/s
Subsatellitenpunkt 35.79°N, 167.65°W
Startdatum 17. Dez. 2022
Alter 3.1 years
Typ internet

Technische Details

Klassifizierung Payload
Masse 305.00 kg
Trockenmasse 290.00 kg
Gesamtmasse 305.00 kg
Länge 0.20 m
Durchmesser 2.80 m
Spannweite 9.00 m
Form Box + pan
Hersteller SPXS
Bus-Typ Starlink
Phasenstatus In Orbit
Besitzer/Staat SPXS/US

Große Konstellationen

Loading constellations...